(124988) = 2001 TF138

Discovered at Palomar on 2001-10-10 by NEAT.

Orbit

Orbit type: Main Belt

Note: WebGL enabled browser required.

epoch2024-03-31.0
epoch JD2460400.5
perihelion date2025-07-25.03244
perihelion JD2460881.53244
argument of perihelion (°)247.06878
ascending node (°)42.03585
inclination (°)6.10374
eccentricity0.1838042
perihelion distance (AU)1.8678917
Tisserand w.r.t. Jupiter3.6
ΔV w.r.t. Earth (km/sec)8.7
semimajor axis (AU)2.2885339
mean anomaly (°)223.05626
mean daily motion (°/day)0.28468710
aphelion distance (AU)2.709
period (years)3.46
P-vector [x]0.32379826
P-vector [y]-0.82443888
P-vector [z]-0.46417154
Q-vector [x]0.94344349
Q-vector [y]0.31827103
Q-vector [z]0.09283282
absolute magnitude16.86
phase slope0.15
uncertainty0
referenceMPEC 2024-C145
observations used586
oppositions15
arc length (days)8212
first opposition used2001
last opposition used2024
residual rms (arc-secs)0.69
perturbers coarse indicatorM-v
perturbers precise indicator003Ek
first observation date used2001-08-19.0
last observation date used2024-02-12.0
computer nameMPCLINUX
JD of orbit computation2456937.540598
perihelion JD uncertainty (days)7.6016E-05
argument of perihelion uncertainty (°)4.6921E-05
ascending node uncertainty (°)4.2852E-05
inclination uncertainty (°)6.3543E-06
eccentricity uncertainty 4.7050E-08
perihelion distance uncertainty (AU)1.1400E-07
Minimum Orbit Intersection Distances (in AU)
for orbit epoch: 2460200.5, reference: E2024-CE5
Mercury1.41246
Venus1.14264
Earth0.8614
Mars0.4344
Jupiter2.46512
Saturn6.37803
Uranus15.8938
Neptune27.3558

Observations

603 total observations over interval: 2001 08 19.36081 – 2024 02 12.492471
These data are available for download (format description).

Date (UT) J2000 RA J2000 Dec Magn Location Ref
2001 08 19.36081 23 32 18.35 -14 57 48.6 19.0   704 – Lincoln Laboratory ETS, New Mexico MPS 44301
2001 08 19.37352 23 32 17.82 -14 57 51.6 18.8   704 – Lincoln Laboratory ETS, New Mexico MPS 44302
2001 08 19.38622 23 32 17.20 -14 57 55.5 18.8   704 – Lincoln Laboratory ETS, New Mexico MPS 44302
2001 09 11.26281 23 10 31.97 -16 23 11.7 18.1   704 – Lincoln Laboratory ETS, New Mexico MPS 44302
2001 09 11.27722 23 10 31.04 -16 23 13.6 18.4   704 – Lincoln Laboratory ETS, New Mexico MPS 44302
2001 09 11.30689 23 10 29.20 -16 23 17.0 18.6   704 – Lincoln Laboratory ETS, New Mexico MPS 44302
2001 09 11.32098 23 10 28.27 -16 23 18.8 19.1   704 – Lincoln Laboratory ETS, New Mexico MPS 44302
2001 09 17.25168 23 04 41.32 -16 31 15.9 18.5 R 699 – Lowell Observatory-LONEOS MPS 44302
2001 09 17.26727 23 04 40.30 -16 31 17.2   699 – Lowell Observatory-LONEOS MPS 44302
2001 09 17.28290 23 04 39.50 -16 31 17.9   699 – Lowell Observatory-LONEOS MPS 44302
2001 09 17.29854 23 04 38.53 -16 31 17.9   699 – Lowell Observatory-LONEOS MPS 44302
2001 10 10.19640 22 49 51.85 -15 46 41.7 20.2   644 – Palomar Mountain/NEAT MPS 39542
2001 10 10.21753 22 49 51.44 -15 46 36.2 19.9   644 – Palomar Mountain/NEAT MPS 39542
2001 10 10.23847 22 49 51.03 -15 46 30.0 20.8   644 – Palomar Mountain/NEAT MPS 39542
2001 10 16.09416 22 48 40.95 -15 17 37.4 20.7   644 – Palomar Mountain/NEAT MPS 39542
2001 10 16.11514 22 48 40.77 -15 17 30.8 20.4   644 – Palomar Mountain/NEAT MPS 39542
2001 10 16.13762 22 48 40.58 -15 17 23.7 20.1   644 – Palomar Mountain/NEAT MPS 39542
2001 10 24.08917 22 48 53.80 -14 28 57.7 20.6   644 – Palomar Mountain/NEAT MPS 40914
2001 10 24.11063 22 48 53.98 -14 28 49.3 20.4   644 – Palomar Mountain/NEAT MPS 40914
2001 10 24.13336 22 48 54.16 -14 28 40.7 21.1   644 – Palomar Mountain/NEAT MPS 40914
2003 01 13.28509 07 12 55.45 +31 10 41.8 20.7   644 – Palomar Mountain/NEAT MPS 106190
2003 01 13.36275 07 12 49.68 +31 10 51.9 21.3   644 – Palomar Mountain/NEAT MPS 106190
2003 01 13.43083 07 12 44.61 +31 11 00.7 20.8   644 – Palomar Mountain/NEAT MPS 106190
2004 04 21.41986 15 16 32.35 -18 06 38.9 19.4   704 – Lincoln Laboratory ETS, New Mexico MPS 106190
2004 04 21.43108 15 16 31.82 -18 06 39.7 19.5   704 – Lincoln Laboratory ETS, New Mexico MPS 106190
2004 04 21.44237 15 16 31.24 -18 06 41.7 19.7   704 – Lincoln Laboratory ETS, New Mexico MPS 106190
2004 04 21.45347 15 16 30.63 -18 06 43.4 19.9   704 – Lincoln Laboratory ETS, New Mexico MPS 106190
2004 04 25.29254 15 13 08.37 -18 10 22.8 19.2   704 – Lincoln Laboratory ETS, New Mexico MPS 106190
2004 04 25.30247 15 13 07.79 -18 10 23.0 19.4   704 – Lincoln Laboratory ETS, New Mexico MPS 106190
2004 04 25.31233 15 13 07.13 -18 10 24.0 19.7   704 – Lincoln Laboratory ETS, New Mexico MPS 106190
2004 04 25.32294 15 13 06.64 -18 10 24.7 19.2   704 – Lincoln Laboratory ETS, New Mexico MPS 106190
2004 04 25.33284 15 13 05.96 -18 10 25.6 19.4   704 – Lincoln Laboratory ETS, New Mexico MPS 106190
2004 05 08.39124 14 59 28.82 -18 15 54.1 18.6   644 – Palomar Mountain/NEAT MPS 106709
2004 05 08.41903 14 59 26.89 -18 15 53.9 18.8   644 – Palomar Mountain/NEAT MPS 106709
2004 05 08.44010 14 59 25.39 -18 15 54.4 19.1   644 – Palomar Mountain/NEAT MPS 106709
2004 05 11.28031 14 56 15.44 -18 15 58.8 18.8 R 699 – Lowell Observatory-LONEOS MPS 106709
2004 05 11.30795 14 56 13.53 -18 15 59.4   699 – Lowell Observatory-LONEOS MPS 106709
2004 05 11.32400 14 56 12.40 -18 15 58.6   699 – Lowell Observatory-LONEOS MPS 106709
2004 05 11.34001 14 56 11.21 -18 15 59.0   699 – Lowell Observatory-LONEOS MPS 106709
2004 05 15.25120 14 51 50.85 -18 15 40.5 19.1   704 – Lincoln Laboratory ETS, New Mexico MPS 107355
2004 05 15.26077 14 51 50.20 -18 15 40.1 19.4   704 – Lincoln Laboratory ETS, New Mexico MPS 107355
2004 05 15.27027 14 51 49.54 -18 15 40.6 19.5   704 – Lincoln Laboratory ETS, New Mexico MPS 107355
2004 05 15.27980 14 51 48.90 -18 15 40.4 19.0   704 – Lincoln Laboratory ETS, New Mexico MPS 107355
2004 05 15.28931 14 51 48.26 -18 15 40.7 19.6   704 – Lincoln Laboratory ETS, New Mexico MPS 107355
2004 05 16.31123 14 50 41.03 -18 15 32.9 19.6   704 – Lincoln Laboratory ETS, New Mexico MPS 107355
2004 05 16.32036 14 50 40.41 -18 15 33.3 19.3   704 – Lincoln Laboratory ETS, New Mexico MPS 107355
2004 05 16.32973 14 50 39.78 -18 15 34.4 19.7   704 – Lincoln Laboratory ETS, New Mexico MPS 107355
2004 05 16.34365 14 50 38.83 -18 15 33.6 19.7   704 – Lincoln Laboratory ETS, New Mexico MPS 107355
2004 05 16.35270 14 50 38.21 -18 15 33.1 19.5   704 – Lincoln Laboratory ETS, New Mexico MPS 107355
2004 05 18.33573 14 48 30.04 -18 15 17.9 19.1   704 – Lincoln Laboratory ETS, New Mexico MPS 107355
2004 05 18.34721 14 48 29.24 -18 15 16.4 19.3   704 – Lincoln Laboratory ETS, New Mexico MPS 107355
2004 05 18.35620 14 48 28.73 -18 15 16.5 19.6   704 – Lincoln Laboratory ETS, New Mexico MPS 107355
2004 05 28.27613 14 38 51.48 -18 15 17.5 19.1 V 691 – Steward Observatory, Kitt Peak-Spacewatch MPS 108470
2004 05 28.30638 14 38 49.84 -18 15 17.6 19.4 V 691 – Steward Observatory, Kitt Peak-Spacewatch MPS 108470
2004 05 28.37350 14 38 46.10 -18 15 18.4 19.4 V 691 – Steward Observatory, Kitt Peak-Spacewatch MPS 108470
2004 07 05.42606 14 31 55.86 -19 32 59.0 19.3 R E12 – Siding Spring Survey MPS 110094
2004 07 05.43859 14 31 56.33 -19 33 01.0 19.7 R E12 – Siding Spring Survey MPS 110094
2004 07 05.45112 14 31 56.58 -19 33 05.0 19.5 R E12 – Siding Spring Survey MPS 110094
2004 07 05.46361 14 31 56.95 -19 33 07.5 19.7 R E12 – Siding Spring Survey MPS 110094
2005 10 27.42088 04 27 46.80 +24 00 07.9 20.3 V 691 – Steward Observatory, Kitt Peak-Spacewatch MPS 145915
2005 10 27.43841 04 27 45.96 +24 00 09.2 20.4 V 691 – Steward Observatory, Kitt Peak-Spacewatch MPS 145915
2005 10 27.45593 04 27 45.11 +24 00 10.6 20.4 V 691 – Steward Observatory, Kitt Peak-Spacewatch MPS 145915
2005 10 30.40353 04 25 22.08 +24 03 26.6 20.0 V G96 – Mt. Lemmon Survey MPS 147316
2005 10 30.40796 04 25 21.86 +24 03 26.8 19.7 V G96 – Mt. Lemmon Survey MPS 147316
2005 10 30.41237 04 25 21.64 +24 03 27.2 19.9 V G96 – Mt. Lemmon Survey MPS 147316
2005 10 30.41678 04 25 21.39 +24 03 27.5 19.9 V G96 – Mt. Lemmon Survey MPS 147316
2005 10 31.39896 04 24 30.36 +24 04 23.3 20.3 V 691 – Steward Observatory, Kitt Peak-Spacewatch MPS 147316
2005 10 31.41657 04 24 29.40 +24 04 24.5 20.6 V 691 – Steward Observatory, Kitt Peak-Spacewatch MPS 147316
2005 10 31.43405 04 24 28.42 +24 04 25.3 20.5 V 691 – Steward Observatory, Kitt Peak-Spacewatch MPS 147316
2005 11 21.19957 04 01 51.96 +24 03 39.7 20.0 V 691 – Steward Observatory, Kitt Peak-Spacewatch MPS 150636
2005 11 21.21695 04 01 50.68 +24 03 38.8 20.1 V 691 – Steward Observatory, Kitt Peak-Spacewatch MPS 150636
2005 11 21.23434 04 01 49.38 +24 03 38.0 19.9 V 691 – Steward Observatory, Kitt Peak-Spacewatch MPS 150636
2005 11 21.36354 04 01 39.72 +24 03 30.7 19.6 V 703 – Catalina Sky Survey MPS 150636
2005 11 21.37165 04 01 39.18 +24 03 29.4 19.7 V 703 – Catalina Sky Survey MPS 150636
2005 11 21.37971 04 01 38.38 +24 03 29.5 19.7 V 703 – Catalina Sky Survey MPS 150636
2005 11 21.38774 04 01 37.92 +24 03 29.5 21.0 V 703 – Catalina Sky Survey MPS 150636
2005 11 29.26127 03 52 13.29 +23 53 33.6 19.4   704 – Lincoln Laboratory ETS, New Mexico MPS 151900
2005 11 29.27427 03 52 12.37 +23 53 31.5 19.7   704 – Lincoln Laboratory ETS, New Mexico MPS 151900
2005 11 29.28748 03 52 11.47 +23 53 31.0 19.9   704 – Lincoln Laboratory ETS, New Mexico MPS 151900
2005 11 29.31322 03 52 09.57 +23 53 28.6 19.8   704 – Lincoln Laboratory ETS, New Mexico MPS 151900
2008 09 06.31272 00 18 28.11 -07 44 13.1 19.0 V 703 – Catalina Sky Survey MPS 256381
2008 09 06.31917 00 18 27.75 -07 44 14.5 18.9 V 703 – Catalina Sky Survey MPS 256381
2008 09 06.32561 00 18 27.39 -07 44 16.3 19.1 V 703 – Catalina Sky Survey MPS 256381
2008 09 06.33207 00 18 27.00 -07 44 17.1 19.3 V 703 – Catalina Sky Survey MPS 256381
2008 09 23.23222 00 01 24.23 -08 42 46.9 18.7   704 – Lincoln Laboratory ETS, New Mexico MPS 257519
2008 09 23.23236 00 01 24.22 -08 42 46.6 18.7   704 – Lincoln Laboratory ETS, New Mexico MPS 257519
